This demonstration page uses our WeatherBlox Daily Observations layout. Learn more.

38.80484, -77.04692

Hourly Observations for April 18, 2019

Temp ( °F °C ) Dew Point ( °F °C ) Humidity (%) Winds ( mph kmh ) Pressure ( in mb ) Visibility ( mi km ) Precip ( " mm )
12:52 am 00:52 Cloudy 56 13.3 48 8.9 75 75 E 6 9 30.1 1019 10 16.0934 0 0
12:55 am 00:55 Cloudy 56 13.3 48 8.9 75 75 ENE 6 9 30.11 1020 10 16.0934 0 0
1:20 am 01:20 Cloudy 56 13.3 48 8.9 75 75 E 9 15 30.11 1020 10 16.0934 0 0
1:36 am 01:36 Cloudy 55 12.8 47 8.3 74 74 ENE 12 19 30.1 1019 10 16.0934 0 0
1:52 am 01:52 Cloudy 55 12.8 47 8.3 74 74 ENE 8 13 30.09 1019 10 16.0934 0 0
2:52 am 02:52 Cloudy 55 12.8 48 8.9 77 77 ENE 6 9 30.07 1018 10 16.0934 0 0
3:07 am 03:07 Cloudy 55 12.8 48 8.9 77 77 ENE 6 9 30.06 1018 10 16.0934 0 0
3:52 am 03:52 Cloudy 56 13.3 49 9.4 77 77 E 8 13 30.05 1018 10 16.0934 0 0
4:52 am 04:52 Cloudy 56 13.3 49 9.4 77 77 NE 9 15 30.03 1017 10 16.0934 0 0
5:52 am 05:52 Cloudy 56 13.3 50 10 81 81 ENE 6 9 30.03 1017 10 16.0934 0 0
6:52 am 06:52 Cloudy 56 13.3 51 10.6 84 84 ENE 6 9 30.03 1017 10 16.0934 0 0
7:52 am 07:52 Cloudy 57 13.9 51 10.6 81 81 ENE 7 11 30.03 1017 10 16.0934 0 0
8:52 am 08:52 Cloudy 58 14.4 52 11.1 81 81 Calm 30.03 1017 10 16.0934 0 0
9:52 am 09:52 Cloudy 59 15 53 11.7 81 81 Calm 30.02 1017 10 16.0934 0 0
10:52 am 10:52 Cloudy 63 17.2 55 12.8 76 76 S 7 11 30.01 1016 10 16.0934 0 0
11:21 am 11:21 Cloudy 63 17.2 55 12.8 76 76 SSE 7 11 30.02 1017 10 16.0934 0 0
11:30 am 11:30 Mostly Cloudy 63 17.2 55 12.8 76 76 SE 6 9 30.01 1016 10 16.0934 0 0
11:52 am 11:52 Cloudy 64 17.8 54 12.2 70 70 SE 5 7 29.99 1016 10 16.0934 0 0
12:52 pm 12:52 Mostly Cloudy 70 21.1 56 13.3 61 61 SSE 7 11 29.97 1015 10 16.0934 0 0
1:52 pm 13:52 Cloudy 73 22.8 55 12.8 53 53 SW 12 19 29.95 1014 10 16.0934 0 0
2:52 pm 14:52 Cloudy 74 23.3 57 13.9 56 56 S 10 17 29.91 1013 10 16.0934 0 0
3:52 pm 15:52 Cloudy 76 24.4 57 13.9 52 52 SSE 9 15 29.88 1012 10 16.0934 0 0
4:52 pm 16:52 Mostly Cloudy 79 26.1 58 14.4 49 49 S 9 15 29.85 1011 10 16.0934 0 0
5:52 pm 17:52 Cloudy 78 25.6 58 14.4 50 50 S 10 17 29.82 1010 10 16.0934 0 0
6:52 pm 18:52 Cloudy 77 25 56 13.3 48 48 S 13 20 29.8 1009 10 16.0934 0 0
7:52 pm 19:52 Cloudy 75 23.9 54 12.2 48 48 S 18 30 29.79 1009 10 16.0934 0 0
8:52 pm 20:52 Cloudy 73 22.8 52 11.1 48 48 S 14 22 29.82 1010 10 16.0934 0 0
9:52 pm 21:52 Cloudy 71 21.7 54 12.2 55 55 S 13 20 29.84 1010 10 16.0934 0 0
10:52 pm 22:52 Cloudy 72 22.2 54 12.2 53 53 S 13 20 29.83 1010 10 16.0934 0 0
11:52 pm 23:52 Mostly Cloudy 71 21.7 55 12.8 57 57 S 14 22 29.82 1010 10 16.0934 0 0

Powered by AerisWeather